Home > Time Zones > World Clock > Weather > Norway > Sola > Past weeks

Flag for Norway Weather past 2 weeks in Sola, Norway

Now
46 °F

Partly sunny.


Feels Like: 44 °F
Forecast: 34 / 47 °F
Wind: 5 mph from South

Location: Stavanger / Sola

Current Time: Apr 27, 2015 at 2:09:34 PM

Latest Report: Apr 27, 2015 at 1:00 PM


Visibility: 25 mi

Pressure: 29.59 "Hg

Humidity: 54%

Dew point: 30 °F

Location of SolaLocation

Historic Weather in Sola — Graph

°F

Sola temperature yesterday

Maximum temperature yesterday: 47 °F (at 1:00 PM)
Minimum temperature yesterday: 39 °F (at 7:00 AM)
Average temperature yesterday: 44 °F

Past Weeks' High & Low Weather Summary

 TemperatureHumidityPressure
High61 °F (Apr 20, 11:00 AM)99% (Apr 21, 2:00 AM)30.46 "Hg (Apr 21, 2:00 AM)
Low34 °F (Apr 27, 4:00 AM)42% (Apr 20, 11:00 AM)29.32 "Hg (Apr 25, 12:00 PM)
Average45 °F81%29.94 "Hg
* Reported Apr 12 1:00 PM — Apr 27 1:00 PM, Sola, Weather by CustomWeather, © 2015

Note: Actual official high and low records may vary slightly from our data, if they occured in-between our weather recording intervals... More about our weather records

Advertising

Sola weather history for previous 24 hours

 ConditionsComfort  
Time TempWeatherWind HumidityBarometerVisibility
1:00 PM
Mon, Apr 27
46 °FPartly sunny.5 mph54%29.59 "Hg25 mi
12:00 PM46 °FOvercast.2 mph54%29.59 "Hg22 mi
11:00 AM46 °FScattered clouds.3 mph52%29.59 "Hg19 mi
10:00 AM46 °FSunny.5 mph58%29.60 "Hg16 mi
9:00 AM42 °FSunny.5 mph67%29.61 "Hg18 mi
8:00 AM40 °FSunny.3 mph76%29.62 "Hg17 mi
7:00 AM37 °FPassing clouds.3 mph88%29.62 "Hg14 mi
6:00 AM36 °FPartly sunny.3 mph90%29.63 "Hg12 mi
5:00 AM36 °FPassing clouds.3 mph89%29.64 "Hg11 mi
4:00 AM34 °FClear.3 mph89%29.65 "Hg11 mi
3:00 AM36 °FPassing clouds.3 mph89%29.67 "Hg11 mi
2:00 AM36 °FPassing clouds.2 mph87%29.68 "Hg11 mi
1:00 AM36 °FClear.No wind84%29.69 "Hg12 mi
12:00 AM38 °FClear.1 mph83%29.69 "Hg14 mi
11:00 PM
Sun, Apr 26
39 °FClear.No wind79%29.69 "Hg16 mi
10:00 PM41 °FClear.1 mph76%29.69 "Hg16 mi
9:00 PM43 °FSunny.3 mph72%29.69 "Hg16 mi
8:00 PM44 °FScattered clouds.3 mph71%29.70 "Hg16 mi
7:00 PM46 °FScattered clouds.6 mph67%29.69 "Hg19 mi
6:00 PM46 °FScattered clouds.5 mph63%29.69 "Hg14 mi
5:00 PM46 °FSunny.6 mph65%29.69 "Hg19 mi
4:00 PM46 °FSunny.6 mph68%29.69 "Hg13 mi
3:00 PM46 °FSunny.5 mph69%29.68 "Hg16 mi
2:00 PM45 °FOvercast.5 mph75%29.68 "Hg9 mi
Weather by CustomWeather, © 2015

See weather overviewHow to use our weather pages